START_TIME,STEP,MOV.,M6,t_acc.,M7,t_acc.,M19,t_acc.,H36,t_acc.
1979-07-24 18:00:26.560 ,0,1,0.,12.0,0.,12.0,0.,12.0,0.,12.0
1979-07-24 18:00:38.560 ,0,1,0.,12.0,0.,12.0,0.,12.0,0.,12.0
1979-07-24 18:00:50.560 ,3,1,0.,12.0,0.,12.0,0.,12.0,0.,12.0
1979-07-24 18:01:02.560 ,3,1,0.,12.0,0.,12.0,0.,12.0,0.,12.0
1979-07-24 18:01:14.560 ,7,1,0.,12.0,0.,12.0,0.,12.0,0.,12.0
1979-07-24 18:01:26.560 ,7,1,0.,12.0,0.,12.0,0.,12.0,0.,12.0
1979-07-24 18:01:38.560 ,4,1,0.,12.0,0.,12.0,0.,12.0,0.,12.0
1979-07-24 18:01:50.560 ,4,1,0.,12.0,0.,12.0,0.,12.0,0.,12.0
1979-07-24 18:02:02.560 ,0,1,0.,12.0,0.,12.0,0.,12.0,0.,12.0
1979-07-24 18:02:14.560 ,0,1,0.,12.0,0.,12.0,0.,12.0,0.,12.0
1979-07-24 18:02:26.560 ,3,1,0.,12.0,0.,12.0,0.,12.0,0.,12.0
1979-07-24 18:02:38.560 ,3,1,0.,12.0,0.,12.0,0.,12.0,0.,12.0
1979-07-24 18:02:50.560 ,7,1,0.,12.0,0.,12.0,0.,12.0,0.,12.0
1979-07-24 18:03:02.560 ,7,1,0.,12.0,0.,12.0,0.,12.0,0.,12.0
1979-07-24 18:03:14.560 ,4,1,0.,12.0,0.,12.0,0.,12.0,0.,12.0
1979-07-24 18:03:26.560 ,4,1,0.,12.0,0.,12.0,0.,12.0,0.,12.0
1979-07-24 18:03:38.560 ,0,1,0.,12.0,0.,12.0,0.,12.0,0.,12.0
1979-07-24 18:03:50.560 ,0,1,0.,12.0,0.,12.0,0.,12.0,0.,12.0
1979-07-24 18:04:02.560 ,3,1,0.,12.0,0.,12.0,0.,12.0,0.,12.0
1979-07-24 18:04:14.560 ,3,1,0.,12.0,0.,12.0,0.,12.0,0.,12.0
1979-07-24 18:04:26.560 ,7,1,0.,12.0,0.,12.0,0.,12.0,0.,12.0
1979-07-24 18:04:38.560 ,7,1,0.,12.0,0.,12.0,0.,12.0,0.,12.0
1979-07-24 18:04:50.560 ,4,1,0.,12.0,0.,12.0,0.,12.0,0.,12.0
1979-07-24 18:05:02.560 ,4,1,0.,12.0,0.,12.0,0.,12.0,0.,12.0
1979-07-24 18:05:14.560 ,0,1,0.,12.0,0.,12.0,0.,12.0,0.,12.0
1979-07-24 18:05:26.560 ,0,1,0.,12.0,0.,12.0,0.,12.0,0.,12.0
1979-07-24 18:05:38.560 ,0,0,0.,12.0,0.,12.0,0.,12.0,0.,12.0
1979-07-24 18:05:50.560 ,0,0,0.,12.0,0.,12.0,0.,12.0,0.,12.0
1979-07-24 18:06:02.560 ,0,0,0.,12.0,0.,12.0,0.,12.0,0.,12.0
1979-07-24 18:06:14.560 ,0,0,0.,12.0,0.,12.0,0.,12.0,0.,12.0
1979-07-24 18:06:26.560 ,5,1,0.,12.0,0.,12.0,0.,12.0,0.,12.0
1979-07-24 18:06:38.560 ,5,1,0.,12.0,0.,12.0,0.,12.0,0.,12.0
1979-07-24 18:06:50.560 ,5,0,0.,12.0,0.,12.0,0.,12.0,0.,12.0
1979-07-24 18:07:02.560 ,5,0,0.,12.0,0.,12.0,0.,12.0,0.,12.0
1979-07-24 18:07:14.560 ,4,1,0.,12.0,0.,12.0,0.,12.0,0.,12.0
1979-07-24 18:07:26.560 ,4,1,0.,12.0,0.,12.0,0.,12.0,0.,12.0
1979-07-24 18:07:38.560 ,4,0,0.,12.0,0.,12.0,0.,12.0,0.,12.0
1979-07-24 18:07:50.560 ,4,0,0.,12.0,0.,12.0,0.,12.0,0.,12.0
1979-07-24 18:08:02.560 ,3,1,0.,12.0,0.,12.0,0.,12.0,0.,12.0
1979-07-24 18:08:14.560 ,3,1,0.,12.0,0.,12.0,0.,12.0,0.,12.0
1979-07-24 18:08:26.560 ,3,0,0.,12.0,0.,12.0,0.,12.0,0.,12.0
1979-07-24 18:08:38.560 ,3,0,0.,12.0,0.,12.0,0.,12.0,0.,12.0
1979-07-24 18:08:50.560 ,2,1,0.,12.0,0.,12.0,0.,12.0,0.,12.0
1979-07-24 18:09:02.560 ,2,1,0.,12.0,0.,12.0,0.,12.0,0.,12.0
1979-07-24 18:09:14.560 ,2,0,0.,12.0,0.,12.0,0.,12.0,0.,12.0
1979-07-24 18:09:26.560 ,2,0,0.,12.0,0.,12.0,0.,12.0,0.,12.0
1979-07-24 18:09:38.560 ,1,1,0.,12.0,0.,12.0,0.,12.0,0.,12.0
1979-07-24 18:09:50.560 ,1,1,0.,12.0,0.,12.0,0.,12.0,0.,12.0
1979-07-24 18:10:02.560 ,1,0,0.,12.0,0.,12.0,0.,12.0,0.,12.0
1979-07-24 18:10:14.560 ,1,0,0.,12.0,0.,12.0,0.,12.0,0.,12.0
1979-07-24 18:10:26.560 ,0,1,0.,12.0,0.,12.0,0.,12.0,0.,12.0
1979-07-24 18:10:38.560 ,0,1,0.,12.0,0.,12.0,0.,12.0,0.,12.0
1979-07-24 18:10:50.560 ,0,0,0.,12.0,0.,12.0,0.,12.0,0.,12.0
1979-07-24 18:11:02.560 ,0,0,0.,12.0,0.,12.0,0.,12.0,0.,12.0
1979-07-24 18:11:14.560 ,0,1,0.,12.0,0.,12.0,0.,12.0,0.,12.0
1979-07-24 18:11:26.560 ,0,1,0.,12.0,0.,12.0,0.,12.0,0.,12.0
1979-07-24 18:11:38.560 ,0,0,0.,12.0,0.,12.0,0.,12.0,0.,12.0
1979-07-24 18:11:50.560 ,0,0,0.,12.0,0.,12.0,0.,12.0,0.,12.0
1979-07-24 18:12:02.560 ,1,1,0.,12.0,0.,12.0,0.,12.0,0.,12.0
1979-07-24 18:12:14.560 ,1,1,0.,12.0,0.,12.0,0.,12.0,0.,12.0
1979-07-24 18:12:26.560 ,1,0,0.,12.0,0.,12.0,0.,12.0,0.,12.0
1979-07-24 18:12:38.560 ,1,0,0.,12.0,0.,12.0,0.,12.0,0.,12.0
1979-07-24 18:12:50.560 ,2,1,0.,12.0,0.,12.0,0.,12.0,0.,12.0
1979-07-24 18:13:02.560 ,2,1,0.,12.0,0.,12.0,0.,12.0,0.,12.0
1979-07-24 18:13:14.560 ,2,0,0.,12.0,0.,12.0,0.,12.0,0.,12.0
1979-07-24 18:13:26.560 ,2,0,0.,12.0,0.,12.0,0.,12.0,0.,12.0
1979-07-24 18:13:38.560 ,3,1,0.,12.0,0.,12.0,0.,12.0,0.,12.0
1979-07-24 18:13:50.560 ,3,1,0.,12.0,0.,12.0,0.,12.0,0.,12.0
1979-07-24 18:14:02.560 ,3,0,0.,12.0,0.,12.0,0.,12.0,0.,12.0
1979-07-24 18:14:14.560 ,3,0,0.,12.0,0.,12.0,0.,12.0,0.,12.0
1979-07-24 18:14:26.560 ,4,1,0.,12.0,0.,12.0,0.,12.0,0.,12.0
1979-07-24 18:14:38.560 ,4,1,0.,12.0,0.,12.0,0.,12.0,0.,12.0
1979-07-24 18:14:50.560 ,4,0,0.,12.0,0.,12.0,0.,12.0,0.,12.0
1979-07-24 18:15:02.560 ,4,0,0.,12.0,0.,12.0,0.,12.0,0.,12.0
1979-07-24 18:15:14.560 ,5,1,0.,12.0,0.,12.0,0.,12.0,0.,12.0
1979-07-24 18:15:26.560 ,5,1,0.,12.0,0.,12.0,0.,12.0,0.,12.0
1979-07-24 18:15:38.560 ,5,0,0.,12.0,0.,12.0,0.,12.0,0.,12.0
1979-07-24 18:15:50.560 ,5,0,0.,12.0,0.,12.0,0.,12.0,0.,12.0
1979-07-24 18:16:02.560 ,6,1,0.,12.0,0.,12.0,0.,12.0,0.,12.0
1979-07-24 18:16:14.560 ,6,1,0.,12.0,0.,12.0,0.,12.0,0.,12.0
1979-07-24 18:16:26.560 ,6,0,0.,12.0,0.,12.0,0.,12.0,0.,12.0
1979-07-24 18:16:38.560 ,6,0,0.,12.0,0.,12.0,0.,12.0,1.,12.0
1979-07-24 18:16:50.560 ,7,1,0.,12.0,0.,12.0,0.,12.0,0.,12.0
1979-07-24 18:17:02.560 ,7,1,0.,12.0,0.,12.0,0.,12.0,0.,12.0
1979-07-24 18:17:14.560 ,7,0,0.,12.0,0.,12.0,0.,12.0,0.,12.0
1979-07-24 18:17:26.560 ,7,0,0.,12.0,0.,12.0,0.,12.0,0.,12.0
1979-07-24 18:17:38.560 ,7,1,0.,12.0,0.,12.0,0.,12.0,0.,12.0
1979-07-24 18:17:50.560 ,7,1,0.,12.0,0.,12.0,0.,12.0,0.,12.0
1979-07-24 18:18:02.560 ,7,0,0.,12.0,0.,12.0,0.,12.0,0.,12.0
1979-07-24 18:18:14.560 ,7,0,0.,12.0,0.,12.0,0.,12.0,0.,12.0
1979-07-24 18:18:26.560 ,6,1,0.,12.0,0.,12.0,0.,12.0,0.,12.0
1979-07-24 18:18:38.560 ,6,1,0.,12.0,0.,12.0,0.,12.0,0.,12.0
1979-07-24 18:18:50.560 ,6,0,0.,12.0,0.,12.0,0.,12.0,0.,12.0
1979-07-24 18:19:02.560 ,6,0,0.,12.0,0.,12.0,0.,12.0,1.,12.0
1979-07-24 18:19:14.560 ,5,1,0.,12.0,0.,12.0,0.,12.0,0.,12.0
1979-07-24 18:19:26.560 ,5,1,0.,12.0,0.,12.0,0.,12.0,0.,12.0
1979-07-24 18:19:38.560 ,5,0,0.,12.0,0.,12.0,0.,12.0,0.,12.0
1979-07-24 18:19:50.560 ,5,0,0.,12.0,0.,12.0,0.,12.0,0.,12.0
1979-07-24 18:20:02.560 ,4,1,0.,12.0,0.,12.0,0.,12.0,0.,12.0
1979-07-24 18:20:14.560 ,4,1,0.,12.0,0.,12.0,0.,12.0,0.,12.0
1979-07-24 18:20:26.560 ,4,0,0.,12.0,0.,12.0,0.,12.0,0.,12.0
1979-07-24 18:20:38.560 ,4,0,0.,12.0,0.,12.0,0.,12.0,0.,12.0
1979-07-24 18:20:50.560 ,3,1,0.,12.0,0.,12.0,0.,12.0,0.,12.0
1979-07-24 18:21:02.560 ,3,1,0.,12.0,0.,12.0,0.,12.0,0.,12.0
1979-07-24 18:21:14.560 ,3,0,0.,12.0,0.,12.0,0.,12.0,0.,12.0
1979-07-24 18:21:26.560 ,3,0,0.,12.0,0.,12.0,0.,12.0,0.,12.0
1979-07-24 18:21:38.560 ,2,1,0.,12.0,0.,12.0,0.,12.0,0.,12.0
1979-07-24 18:21:50.560 ,2,1,0.,12.0,0.,12.0,0.,12.0,0.,12.0
1979-07-24 18:22:02.560 ,2,0,0.,12.0,0.,12.0,0.,12.0,0.,12.0
1979-07-24 18:22:14.560 ,2,0,0.,12.0,0.,12.0,0.,12.0,0.,12.0
1979-07-24 18:22:26.560 ,1,1,0.,12.0,0.,12.0,0.,12.0,0.,12.0
1979-07-24 18:22:38.560 ,1,1,0.,12.0,0.,12.0,0.,12.0,0.,12.0
1979-07-24 18:22:50.560 ,1,0,0.,12.0,0.,12.0,0.,12.0,0.,12.0
1979-07-24 18:23:02.560 ,1,0,0.,12.0,0.,12.0,0.,12.0,0.,12.0
1979-07-24 18:23:14.560 ,0,1,0.,12.0,0.,12.0,0.,12.0,0.,12.0
1979-07-24 18:23:26.560 ,0,1,0.,12.0,0.,12.0,0.,12.0,0.,12.0
1979-07-24 18:23:38.560 ,0,0,0.,12.0,0.,12.0,0.,12.0,0.,12.0
1979-07-24 18:23:50.560 ,0,0,0.,12.0,0.,12.0,0.,12.0,0.,12.0
1979-07-24 18:24:02.560 ,0,1,0.,12.0,0.,12.0,0.,12.0,0.,12.0
1979-07-24 18:24:14.560 ,0,1,1.,12.0,0.,12.0,0.,12.0,0.,12.0
1979-07-24 18:24:26.560 ,0,0,0.,12.0,0.,12.0,0.,12.0,0.,12.0
1979-07-24 18:24:38.560 ,0,0,0.,12.0,0.,12.0,0.,12.0,0.,12.0
1979-07-24 18:24:50.560 ,1,1,0.,12.0,0.,12.0,0.,12.0,0.,12.0
1979-07-24 18:25:02.560 ,1,1,0.,12.0,0.,12.0,0.,12.0,0.,12.0
1979-07-24 18:25:14.560 ,1,0,0.,12.0,0.,12.0,0.,12.0,0.,12.0
1979-07-24 18:25:26.560 ,1,0,0.,12.0,0.,12.0,0.,12.0,0.,12.0
1979-07-24 18:25:38.560 ,2,1,0.,12.0,0.,12.0,0.,12.0,0.,12.0
1979-07-24 18:25:50.560 ,2,1,0.,12.0,0.,12.0,0.,12.0,0.,12.0
1979-07-24 18:26:02.560 ,2,0,0.,12.0,0.,12.0,0.,12.0,0.,12.0
1979-07-24 18:26:14.560 ,2,0,0.,12.0,0.,12.0,0.,12.0,0.,12.0
1979-07-24 18:26:26.560 ,3,1,0.,12.0,0.,12.0,0.,12.0,0.,12.0
1979-07-24 18:26:38.560 ,3,1,0.,12.0,0.,12.0,0.,12.0,0.,12.0
1979-07-24 18:26:50.560 ,3,0,0.,12.0,0.,12.0,0.,12.0,0.,12.0
1979-07-24 18:27:02.560 ,3,0,0.,12.0,0.,12.0,0.,12.0,0.,12.0
1979-07-24 18:27:14.560 ,4,1,0.,12.0,0.,12.0,0.,12.0,0.,12.0
1979-07-24 18:27:26.560 ,4,1,0.,12.0,0.,12.0,0.,12.0,0.,12.0
1979-07-24 18:27:38.560 ,4,0,0.,12.0,0.,12.0,0.,12.0,0.,12.0
1979-07-24 18:27:50.560 ,4,0,0.,12.0,0.,12.0,0.,12.0,0.,12.0
1979-07-24 18:28:02.560 ,5,1,0.,12.0,0.,12.0,0.,12.0,0.,12.0
1979-07-24 18:28:14.560 ,5,1,0.,12.0,0.,12.0,0.,12.0,0.,12.0
1979-07-24 18:28:26.560 ,5,0,0.,12.0,0.,12.0,0.,12.0,0.,12.0
1979-07-24 18:28:38.560 ,5,0,0.,12.0,0.,12.0,0.,12.0,0.,12.0
1979-07-24 18:28:50.560 ,6,1,0.,12.0,0.,12.0,0.,12.0,0.,12.0
1979-07-24 18:29:02.560 ,6,1,0.,12.0,0.,12.0,0.,12.0,0.,12.0
1979-07-24 18:29:14.560 ,6,0,1.,12.0,0.,12.0,0.,12.0,0.,12.0
1979-07-24 18:29:26.560 ,6,0,0.,12.0,0.,12.0,0.,12.0,1.,12.0
1979-07-24 18:29:38.560 ,7,1,0.,12.0,0.,12.0,0.,12.0,0.,12.0
1979-07-24 18:29:50.560 ,7,1,0.,12.0,0.,12.0,0.,12.0,0.,12.0
1979-07-24 18:30:02.560 ,7,0,0.,12.0,0.,12.0,0.,12.0,0.,12.0
1979-07-24 18:30:14.560 ,7,0,0.,12.0,0.,12.0,0.,12.0,0.,12.0
1979-07-24 18:30:26.560 ,7,1,0.,12.0,0.,12.0,0.,12.0,0.,12.0
1979-07-24 18:30:38.560 ,7,1,0.,12.0,0.,12.0,0.,12.0,0.,12.0
1979-07-24 18:30:50.560 ,7,0,0.,12.0,0.,12.0,0.,12.0,0.,12.0
1979-07-24 18:31:02.560 ,7,0,0.,12.0,0.,12.0,0.,12.0,0.,12.0
1979-07-24 18:31:14.560 ,6,1,0.,12.0,0.,12.0,0.,12.0,0.,12.0
1979-07-24 18:31:26.560 ,6,1,0.,12.0,0.,12.0,0.,12.0,0.,12.0
1979-07-24 18:31:38.560 ,6,0,0.,12.0,0.,12.0,0.,12.0,0.,12.0
1979-07-24 18:31:50.560 ,6,0,0.,12.0,0.,12.0,0.,12.0,0.,12.0
1979-07-24 18:32:02.560 ,5,1,0.,12.0,0.,12.0,0.,12.0,0.,12.0
1979-07-24 18:32:14.560 ,5,1,0.,12.0,0.,12.0,0.,12.0,0.,12.0
1979-07-24 18:32:26.560 ,5,0,0.,12.0,0.,12.0,0.,12.0,0.,12.0
1979-07-24 18:32:38.560 ,5,0,0.,12.0,0.,12.0,0.,12.0,0.,12.0
1979-07-24 18:32:50.560 ,4,1,0.,12.0,0.,12.0,0.,12.0,0.,12.0
1979-07-24 18:33:02.560 ,4,1,0.,12.0,0.,12.0,0.,12.0,0.,12.0
1979-07-24 18:33:14.560 ,4,0,0.,12.0,0.,12.0,0.,12.0,0.,12.0
1979-07-24 18:33:26.560 ,4,0,0.,12.0,0.,12.0,0.,12.0,0.,12.0
1979-07-24 18:33:38.560 ,3,1,0.,12.0,0.,12.0,0.,12.0,0.,12.0
1979-07-24 18:33:50.560 ,3,1,0.,12.0,0.,12.0,0.,12.0,0.,12.0
1979-07-24 18:34:02.560 ,3,0,1.,12.0,0.,12.0,0.,12.0,0.,12.0
1979-07-24 18:34:14.560 ,3,0,0.,12.0,0.,12.0,0.,12.0,0.,12.0
1979-07-24 18:34:26.560 ,2,1,0.,12.0,0.,12.0,0.,12.0,0.,12.0
1979-07-24 18:34:38.560 ,2,1,0.,12.0,0.,12.0,0.,12.0,0.,12.0
1979-07-24 18:34:50.560 ,2,0,0.,12.0,0.,12.0,0.,12.0,0.,12.0
1979-07-24 18:35:02.560 ,2,0,0.,12.0,0.,12.0,0.,12.0,0.,12.0
1979-07-24 18:35:14.560 ,1,1,0.,12.0,0.,12.0,0.,12.0,0.,12.0
1979-07-24 18:35:26.560 ,1,1,0.,12.0,0.,12.0,0.,12.0,0.,12.0
1979-07-24 18:35:38.560 ,1,0,0.,12.0,0.,12.0,0.,12.0,0.,12.0
1979-07-24 18:35:50.560 ,1,0,0.,12.0,0.,12.0,0.,12.0,0.,12.0
1979-07-24 18:36:02.560 ,0,1,0.,12.0,0.,12.0,0.,12.0,0.,12.0
1979-07-24 18:36:14.560 ,0,1,0.,12.0,0.,12.0,0.,12.0,0.,12.0
1979-07-24 18:36:26.560 ,0,0,0.,12.0,0.,12.0,0.,12.0,0.,12.0
1979-07-24 18:36:38.560 ,0,0,0.,12.0,0.,12.0,0.,12.0,0.,12.0
1979-07-24 18:36:50.560 ,0,1,1.,12.0,0.,12.0,0.,12.0,0.,12.0
1979-07-24 18:37:02.560 ,0,1,0.,12.0,0.,12.0,0.,12.0,0.,12.0
1979-07-24 18:37:14.560 ,0,0,0.,12.0,0.,12.0,0.,12.0,0.,12.0
1979-07-24 18:37:26.560 ,0,0,0.,12.0,0.,12.0,0.,12.0,0.,12.0
1979-07-24 18:37:38.560 ,1,1,0.,12.0,0.,12.0,0.,12.0,1.,12.0
1979-07-24 18:37:50.560 ,1,1,0.,12.0,0.,12.0,0.,12.0,0.,12.0
1979-07-24 18:38:02.560 ,1,0,0.,12.0,0.,12.0,0.,12.0,0.,12.0
1979-07-24 18:38:14.560 ,1,0,0.,12.0,0.,12.0,0.,12.0,0.,12.0
1979-07-24 18:38:26.560 ,2,1,0.,12.0,0.,12.0,0.,12.0,0.,12.0
1979-07-24 18:38:38.560 ,2,1,0.,12.0,0.,12.0,0.,12.0,0.,12.0
1979-07-24 18:38:50.560 ,2,0,0.,12.0,0.,12.0,0.,12.0,0.,12.0
1979-07-24 18:39:02.560 ,2,0,0.,12.0,0.,12.0,0.,12.0,0.,12.0
1979-07-24 18:39:14.560 ,3,1,0.,12.0,0.,12.0,0.,12.0,0.,12.0
1979-07-24 18:39:26.560 ,3,1,0.,12.0,0.,12.0,0.,12.0,0.,12.0
1979-07-24 18:39:38.560 ,3,0,0.,12.0,0.,12.0,0.,12.0,0.,12.0
1979-07-24 18:39:50.560 ,3,0,0.,12.0,0.,12.0,0.,12.0,0.,12.0
1979-07-24 18:40:02.560 ,4,1,0.,12.0,0.,12.0,0.,12.0,0.,12.0
1979-07-24 18:40:14.560 ,4,1,0.,12.0,0.,12.0,0.,12.0,0.,12.0
1979-07-24 18:40:26.560 ,4,0,0.,12.0,0.,12.0,0.,12.0,0.,12.0
1979-07-24 18:40:38.560 ,4,0,0.,12.0,0.,12.0,0.,12.0,0.,12.0
1979-07-24 18:40:50.560 ,5,1,0.,12.0,0.,12.0,0.,12.0,0.,12.0
1979-07-24 18:41:02.560 ,5,1,1.,12.0,0.,12.0,0.,12.0,0.,12.0
1979-07-24 18:41:14.560 ,5,0,0.,12.0,0.,12.0,0.,12.0,0.,12.0
1979-07-24 18:41:26.560 ,5,0,0.,12.0,0.,12.0,0.,12.0,0.,12.0
1979-07-24 18:41:38.560 ,6,1,0.,12.0,0.,12.0,0.,12.0,0.,12.0
1979-07-24 18:41:50.560 ,6,1,0.,12.0,0.,12.0,0.,12.0,0.,12.0
1979-07-24 18:42:02.560 ,6,0,0.,12.0,0.,12.0,0.,12.0,1.,12.0
1979-07-24 18:42:14.560 ,6,0,0.,12.0,0.,12.0,0.,12.0,0.,12.0
1979-07-24 18:42:26.560 ,7,0,0.,12.0,0.,12.0,0.,12.0,0.,12.0
1979-07-24 18:42:38.560 ,7,0,0.,12.0,0.,12.0,0.,12.0,0.,12.0
1979-07-24 18:42:50.560 ,7,0,0.,12.0,0.,12.0,0.,12.0,0.,12.0
1979-07-24 18:43:02.560 ,7,0,0.,12.0,0.,12.0,0.,12.0,0.,12.0
1979-07-24 18:43:14.560 ,4,1,0.,12.0,0.,12.0,0.,12.0,0.,12.0
1979-07-24 18:43:26.560 ,4,1,0.,12.0,0.,12.0,0.,12.0,0.,12.0
1979-07-24 18:43:38.560 ,0,1,0.,12.0,0.,12.0,0.,12.0,0.,12.0
1979-07-24 18:43:50.560 ,0,1,0.,12.0,0.,12.0,0.,12.0,0.,12.0
1979-07-24 18:44:02.560 ,3,1,0.,12.0,0.,12.0,0.,12.0,0.,12.0
1979-07-24 18:44:14.560 ,3,1,0.,12.0,0.,12.0,0.,12.0,0.,12.0
1979-07-24 18:44:26.560 ,7,1,0.,12.0,0.,12.0,0.,12.0,0.,12.0
1979-07-24 18:44:38.560 ,7,1,0.,12.0,0.,12.0,0.,12.0,0.,12.0
1979-07-24 18:44:50.560 ,4,1,0.,12.0,0.,12.0,0.,12.0,0.,12.0
1979-07-24 18:45:02.560 ,4,1,0.,12.0,0.,12.0,0.,12.0,0.,12.0
1979-07-24 18:45:14.560 ,0,1,0.,12.0,0.,12.0,0.,12.0,0.,12.0
1979-07-24 18:45:26.560 ,0,1,0.,12.0,0.,12.0,0.,12.0,0.,12.0
1979-07-24 18:45:38.560 ,3,1,0.,12.0,0.,12.0,0.,12.0,0.,12.0
1979-07-24 18:45:50.560 ,3,1,0.,12.0,0.,12.0,0.,12.0,0.,12.0
1979-07-24 18:46:02.560 ,7,1,0.,12.0,0.,12.0,0.,12.0,0.,12.0
1979-07-24 18:46:14.560 ,7,1,0.,12.0,0.,12.0,0.,12.0,0.,12.0
1979-07-24 18:46:26.560 ,4,1,0.,12.0,0.,12.0,0.,12.0,0.,12.0
1979-07-24 18:46:38.560 ,4,1,0.,12.0,0.,12.0,0.,12.0,0.,12.0
1979-07-24 18:46:50.560 ,0,1,0.,12.0,0.,12.0,0.,12.0,0.,12.0
1979-07-24 18:47:02.560 ,0,1,0.,12.0,0.,12.0,0.,12.0,0.,12.0
1979-07-24 18:47:14.560 ,3,1,0.,12.0,0.,12.0,0.,12.0,0.,12.0
1979-07-24 18:47:26.560 ,3,1,0.,12.0,0.,12.0,0.,12.0,0.,12.0
1979-07-24 18:47:38.560 ,7,1,0.,12.0,0.,12.0,0.,12.0,0.,12.0
1979-07-24 18:47:50.560 ,7,1,0.,12.0,0.,12.0,0.,12.0,1.,12.0
1979-07-24 18:48:02.560 ,4,1,0.,12.0,0.,12.0,0.,12.0,0.,12.0
1979-07-24 18:48:14.560 ,4,1,0.,12.0,0.,12.0,0.,12.0,0.,12.0
1979-07-24 18:48:26.560 ,0,1,0.,12.0,0.,12.0,0.,12.0,0.,12.0
1979-07-24 18:48:38.560 ,0,1,0.,12.0,0.,12.0,0.,12.0,0.,12.0
1979-07-24 18:48:50.560 ,3,1,0.,12.0,0.,12.0,0.,12.0,0.,12.0
1979-07-24 18:49:02.560 ,3,1,0.,12.0,0.,12.0,0.,12.0,0.,12.0
1979-07-24 18:49:14.560 ,7,1,0.,12.0,0.,12.0,0.,12.0,0.,12.0
1979-07-24 18:49:26.560 ,7,1,0.,12.0,0.,12.0,0.,12.0,0.,12.0
1979-07-24 18:49:38.560 ,4,1,0.,12.0,0.,12.0,0.,12.0,0.,12.0
1979-07-24 18:49:50.560 ,4,1,0.,12.0,0.,12.0,0.,12.0,1.,12.0
1979-07-24 18:50:02.560 ,0,1,0.,12.0,0.,12.0,0.,12.0,0.,12.0
1979-07-24 18:50:14.560 ,0,1,0.,12.0,0.,12.0,0.,12.0,0.,12.0
1979-07-24 18:50:26.560 ,3,1,0.,12.0,0.,12.0,0.,12.0,0.,12.0
1979-07-24 18:50:38.560 ,3,1,0.,12.0,0.,12.0,0.,12.0,0.,12.0
1979-07-24 18:50:50.560 ,7,1,0.,12.0,0.,12.0,0.,12.0,0.,12.0
1979-07-24 18:51:02.560 ,7,1,0.,12.0,0.,12.0,0.,12.0,0.,12.0
1979-07-24 18:51:14.560 ,4,1,0.,12.0,0.,12.0,0.,12.0,0.,12.0
1979-07-24 18:51:26.560 ,4,1,0.,12.0,0.,12.0,0.,12.0,0.,12.0
1979-07-24 18:51:38.560 ,0,1,0.,12.0,0.,12.0,0.,12.0,0.,12.0
1979-07-24 18:51:50.560 ,0,1,0.,12.0,0.,12.0,0.,12.0,0.,12.0
1979-07-24 18:52:02.560 ,3,1,0.,12.0,0.,12.0,0.,12.0,0.,12.0
1979-07-24 18:52:14.560 ,3,1,0.,12.0,0.,12.0,0.,12.0,0.,12.0
1979-07-24 18:52:26.560 ,7,1,0.,12.0,0.,12.0,0.,12.0,0.,12.0
1979-07-24 18:52:38.560 ,7,1,0.,12.0,0.,12.0,0.,12.0,0.,12.0
1979-07-24 18:52:50.560 ,4,1,0.,12.0,0.,12.0,0.,12.0,0.,12.0
1979-07-24 18:53:02.560 ,4,1,0.,12.0,0.,12.0,0.,12.0,0.,12.0
1979-07-24 18:53:14.560 ,0,1,0.,12.0,0.,12.0,0.,12.0,0.,12.0
1979-07-24 18:53:26.560 ,0,1,0.,12.0,0.,12.0,0.,12.0,0.,12.0
1979-07-24 18:53:38.560 ,0,0,0.,12.0,0.,12.0,0.,12.0,0.,12.0
1979-07-24 18:53:50.560 ,0,0,0.,12.0,0.,12.0,0.,12.0,0.,12.0
1979-07-24 18:54:02.560 ,0,0,0.,12.0,0.,12.0,0.,12.0,0.,12.0
1979-07-24 18:54:14.560 ,0,0,0.,12.0,0.,12.0,0.,12.0,0.,12.0
1979-07-24 18:54:26.560 ,5,1,0.,12.0,0.,12.0,0.,12.0,0.,12.0
1979-07-24 18:54:38.560 ,5,1,1.,12.0,0.,12.0,0.,12.0,0.,12.0
1979-07-24 18:54:50.560 ,5,0,0.,12.0,0.,12.0,0.,12.0,0.,12.0
1979-07-24 18:55:02.560 ,5,0,0.,12.0,0.,12.0,0.,12.0,0.,12.0
1979-07-24 18:55:14.560 ,4,1,0.,12.0,0.,12.0,0.,12.0,0.,12.0
1979-07-24 18:55:26.560 ,4,1,0.,12.0,0.,12.0,0.,12.0,0.,12.0
1979-07-24 18:55:38.560 ,4,0,0.,12.0,0.,12.0,0.,12.0,0.,12.0
1979-07-24 18:55:50.560 ,4,0,0.,12.0,0.,12.0,0.,12.0,0.,12.0
1979-07-24 18:56:02.560 ,3,1,0.,12.0,0.,12.0,0.,12.0,0.,12.0
1979-07-24 18:56:14.560 ,3,1,0.,12.0,0.,12.0,0.,12.0,0.,12.0
1979-07-24 18:56:26.560 ,3,0,0.,12.0,0.,12.0,0.,12.0,0.,12.0
1979-07-24 18:56:38.560 ,3,0,0.,12.0,0.,12.0,0.,12.0,0.,12.0
1979-07-24 18:56:50.560 ,2,1,0.,12.0,0.,12.0,0.,12.0,0.,12.0
1979-07-24 18:57:02.560 ,2,1,0.,12.0,0.,12.0,0.,12.0,0.,12.0
1979-07-24 18:57:14.560 ,2,0,0.,12.0,0.,12.0,0.,12.0,0.,12.0
1979-07-24 18:57:26.560 ,2,0,0.,12.0,0.,12.0,0.,12.0,0.,12.0
1979-07-24 18:57:38.560 ,1,1,0.,12.0,0.,12.0,0.,12.0,0.,12.0
1979-07-24 18:57:50.560 ,1,1,0.,12.0,0.,12.0,0.,12.0,0.,12.0
1979-07-24 18:58:02.560 ,1,0,0.,12.0,0.,12.0,0.,12.0,0.,12.0
1979-07-24 18:58:14.560 ,1,0,0.,12.0,0.,12.0,0.,12.0,0.,12.0
1979-07-24 18:58:26.560 ,0,1,0.,12.0,0.,12.0,0.,12.0,0.,12.0
1979-07-24 18:58:38.560 ,0,1,0.,12.0,0.,12.0,0.,12.0,0.,12.0
1979-07-24 18:58:50.560 ,0,0,0.,12.0,0.,12.0,0.,12.0,0.,12.0
1979-07-24 18:59:02.560 ,0,0,0.,12.0,0.,12.0,0.,12.0,0.,12.0
1979-07-24 18:59:14.560 ,0,1,0.,12.0,0.,12.0,0.,12.0,0.,12.0
1979-07-24 18:59:26.560 ,0,1,0.,12.0,0.,12.0,0.,12.0,0.,12.0
1979-07-24 18:59:38.560 ,0,0,0.,12.0,0.,12.0,0.,12.0,0.,12.0
1979-07-24 18:59:50.560 ,0,0,0.,12.0,0.,12.0,0.,12.0,0.,12.0
1979-07-24 19:00:02.560 ,1,1,0.,12.0,0.,12.0,0.,12.0,0.,12.0
1979-07-24 19:00:14.560 ,1,1,0.,12.0,0.,12.0,0.,12.0,0.,12.0
1979-07-24 19:00:26.560 ,1,0,0.,12.0,0.,12.0,0.,12.0,0.,12.0
1979-07-24 19:00:38.560 ,1,0,0.,12.0,0.,12.0,0.,12.0,0.,12.0
1979-07-24 19:00:50.560 ,2,1,0.,12.0,0.,12.0,0.,12.0,0.,12.0
1979-07-24 19:01:02.560 ,2,1,0.,12.0,0.,12.0,0.,12.0,1.,12.0
1979-07-24 19:01:14.560 ,2,0,0.,12.0,0.,12.0,0.,12.0,0.,12.0
1979-07-24 19:01:26.560 ,2,0,0.,12.0,0.,12.0,0.,12.0,0.,12.0
1979-07-24 19:01:38.560 ,3,1,0.,12.0,0.,12.0,0.,12.0,0.,12.0
1979-07-24 19:01:50.560 ,3,1,0.,12.0,0.,12.0,0.,12.0,0.,12.0
1979-07-24 19:02:02.560 ,3,0,0.,12.0,0.,12.0,0.,12.0,0.,12.0
1979-07-24 19:02:14.560 ,3,0,0.,12.0,0.,12.0,0.,12.0,0.,12.0
1979-07-24 19:02:26.560 ,4,1,0.,12.0,0.,12.0,0.,12.0,0.,12.0
1979-07-24 19:02:38.560 ,4,1,0.,12.0,0.,12.0,0.,12.0,0.,12.0
1979-07-24 19:02:50.560 ,4,0,0.,12.0,0.,12.0,0.,12.0,0.,12.0
1979-07-24 19:03:02.560 ,4,0,0.,12.0,0.,12.0,0.,12.0,0.,12.0
1979-07-24 19:03:14.560 ,5,1,0.,12.0,0.,12.0,0.,12.0,0.,12.0
1979-07-24 19:03:26.560 ,5,1,1.,12.0,0.,12.0,0.,12.0,0.,12.0
1979-07-24 19:03:38.560 ,5,0,0.,12.0,0.,12.0,0.,12.0,0.,12.0
1979-07-24 19:03:50.560 ,5,0,0.,12.0,0.,12.0,0.,12.0,0.,12.0
1979-07-24 19:04:02.560 ,6,1,0.,12.0,0.,12.0,0.,12.0,0.,12.0
1979-07-24 19:04:14.560 ,6,1,0.,12.0,0.,12.0,0.,12.0,0.,12.0
1979-07-24 19:04:26.560 ,6,0,0.,12.0,0.,12.0,0.,12.0,0.,12.0
1979-07-24 19:04:38.560 ,6,0,0.,12.0,0.,12.0,0.,12.0,0.,12.0
1979-07-24 19:04:50.560 ,7,1,0.,12.0,0.,12.0,0.,12.0,1.,12.0
1979-07-24 19:05:02.560 ,7,1,0.,12.0,0.,12.0,0.,12.0,0.,12.0
1979-07-24 19:05:14.560 ,7,0,0.,12.0,0.,12.0,0.,12.0,0.,12.0
1979-07-24 19:05:26.560 ,7,0,0.,12.0,0.,12.0,0.,12.0,0.,12.0
1979-07-24 19:05:38.560 ,7,1,0.,12.0,0.,12.0,0.,12.0,0.,12.0
1979-07-24 19:05:50.560 ,7,1,0.,12.0,0.,12.0,0.,12.0,0.,12.0
1979-07-24 19:06:02.560 ,7,0,0.,12.0,0.,12.0,0.,12.0,0.,12.0
1979-07-24 19:06:14.560 ,7,0,0.,12.0,0.,12.0,0.,12.0,0.,12.0
1979-07-24 19:06:26.560 ,6,1,0.,12.0,0.,12.0,0.,12.0,0.,12.0
1979-07-24 19:06:38.560 ,6,1,0.,12.0,0.,12.0,0.,12.0,0.,12.0
1979-07-24 19:06:50.560 ,6,0,0.,12.0,0.,12.0,0.,12.0,0.,12.0
1979-07-24 19:07:02.560 ,6,0,0.,12.0,0.,12.0,0.,12.0,0.,12.0
1979-07-24 19:07:14.560 ,5,1,0.,12.0,0.,12.0,0.,12.0,0.,12.0
1979-07-24 19:07:26.560 ,5,1,0.,12.0,0.,12.0,0.,12.0,0.,12.0
1979-07-24 19:07:38.560 ,5,0,0.,12.0,0.,12.0,0.,12.0,0.,12.0
1979-07-24 19:07:50.560 ,5,0,0.,12.0,0.,12.0,0.,12.0,0.,12.0
1979-07-24 19:08:02.560 ,4,1,0.,12.0,0.,12.0,0.,12.0,0.,12.0
1979-07-24 19:08:14.560 ,4,1,0.,12.0,0.,12.0,0.,12.0,1.,12.0
1979-07-24 19:08:26.560 ,4,0,0.,12.0,0.,12.0,0.,12.0,0.,12.0
1979-07-24 19:08:38.560 ,4,0,0.,12.0,0.,12.0,0.,12.0,0.,12.0
1979-07-24 19:08:50.560 ,3,1,0.,12.0,0.,12.0,0.,12.0,0.,12.0
1979-07-24 19:09:02.560 ,3,1,0.,12.0,0.,12.0,0.,12.0,0.,12.0
1979-07-24 19:09:14.560 ,3,0,0.,12.0,0.,12.0,0.,12.0,0.,12.0
1979-07-24 19:09:26.560 ,3,0,0.,12.0,0.,12.0,0.,12.0,0.,12.0
1979-07-24 19:09:38.560 ,2,1,0.,12.0,0.,12.0,0.,12.0,0.,12.0
1979-07-24 19:09:50.560 ,2,1,0.,12.0,0.,12.0,0.,12.0,0.,12.0
1979-07-24 19:10:02.560 ,2,0,0.,12.0,0.,12.0,0.,12.0,0.,12.0
1979-07-24 19:10:14.560 ,2,0,0.,12.0,0.,12.0,0.,12.0,0.,12.0
1979-07-24 19:10:26.560 ,1,1,0.,12.0,0.,12.0,0.,12.0,0.,12.0
1979-07-24 19:10:38.560 ,1,1,0.,12.0,0.,12.0,0.,12.0,0.,12.0
1979-07-24 19:10:50.560 ,1,0,0.,12.0,0.,12.0,0.,12.0,0.,12.0
1979-07-24 19:11:02.560 ,1,0,0.,12.0,0.,12.0,0.,12.0,0.,12.0
1979-07-24 19:11:14.560 ,0,1,0.,12.0,0.,12.0,0.,12.0,0.,12.0
1979-07-24 19:11:26.560 ,0,1,0.,12.0,0.,12.0,0.,12.0,0.,12.0
1979-07-24 19:11:38.560 ,0,0,0.,12.0,0.,12.0,0.,12.0,0.,12.0
1979-07-24 19:11:50.560 ,0,0,1.,12.0,0.,12.0,0.,12.0,0.,12.0
1979-07-24 19:12:02.560 ,0,1,0.,12.0,0.,12.0,0.,12.0,0.,12.0
1979-07-24 19:12:14.560 ,0,1,0.,12.0,0.,12.0,0.,12.0,0.,12.0
1979-07-24 19:12:26.560 ,0,0,0.,12.0,0.,12.0,0.,12.0,0.,12.0
1979-07-24 19:12:38.560 ,0,0,0.,12.0,0.,12.0,0.,12.0,0.,12.0
1979-07-24 19:12:50.560 ,1,1,0.,12.0,0.,12.0,0.,12.0,1.,12.0
1979-07-24 19:13:02.560 ,1,1,0.,12.0,0.,12.0,0.,12.0,0.,12.0
1979-07-24 19:13:14.560 ,1,0,0.,12.0,0.,12.0,0.,12.0,0.,12.0
1979-07-24 19:13:26.560 ,1,0,0.,12.0,0.,12.0,0.,12.0,0.,12.0
1979-07-24 19:13:38.560 ,2,1,0.,12.0,0.,12.0,0.,12.0,0.,12.0
1979-07-24 19:13:50.560 ,2,1,0.,12.0,0.,12.0,0.,12.0,0.,12.0
1979-07-24 19:14:02.560 ,2,0,0.,12.0,0.,12.0,0.,12.0,0.,12.0
1979-07-24 19:14:14.560 ,2,0,0.,12.0,0.,12.0,0.,12.0,0.,12.0
1979-07-24 19:14:26.560 ,3,1,0.,12.0,0.,12.0,0.,12.0,0.,12.0
1979-07-24 19:14:38.560 ,3,1,0.,12.0,0.,12.0,0.,12.0,0.,12.0
1979-07-24 19:14:50.560 ,3,0,0.,12.0,0.,12.0,0.,12.0,0.,12.0
1979-07-24 19:15:02.560 ,3,0,0.,12.0,0.,12.0,0.,12.0,0.,12.0
1979-07-24 19:15:14.560 ,4,1,0.,12.0,0.,12.0,0.,12.0,0.,12.0
1979-07-24 19:15:26.560 ,4,1,0.,12.0,0.,12.0,0.,12.0,0.,12.0
1979-07-24 19:15:38.560 ,4,0,0.,12.0,0.,12.0,0.,12.0,0.,12.0
1979-07-24 19:15:50.560 ,4,0,0.,12.0,0.,12.0,0.,12.0,0.,12.0
1979-07-24 19:16:02.560 ,5,1,0.,12.0,0.,12.0,0.,12.0,0.,12.0
1979-07-24 19:16:14.560 ,5,1,0.,12.0,0.,12.0,0.,12.0,0.,12.0
1979-07-24 19:16:26.560 ,5,0,0.,12.0,0.,12.0,0.,12.0,0.,12.0
1979-07-24 19:16:38.560 ,5,0,0.,12.0,0.,12.0,0.,12.0,0.,12.0
1979-07-24 19:16:50.560 ,6,1,1.,12.0,0.,12.0,0.,12.0,0.,12.0
1979-07-24 19:17:02.560 ,6,1,0.,12.0,0.,12.0,0.,12.0,0.,12.0
1979-07-24 19:17:14.560 ,6,0,1.,12.0,0.,12.0,0.,12.0,0.,12.0
1979-07-24 19:17:26.560 ,6,0,0.,12.0,0.,12.0,0.,12.0,0.,12.0